Zurück zum Katalog

COSMOS 839 DEB

AktivUNKNOWN
NORAD 10410·DEBRIS·🇷🇺 Russia

Gestartet Jul 8, 1976 von Plesetsk Cosmodrome

Loading…

Nächste Überflüge (nächste 24 Stunden)

TLE

AktuellSource: Space-Track

Epoche: Sep 14, 2026, 11:13 UTC

1 10410U 76067D   26257.46767319 -.00000064  00000-0 -34636-4 0  9995
2 10410  66.0896  58.4832 0690081 327.6105  57.1344 12.33015269259205

Verfolge COSMOS 839 DEB in Echtzeit mit AllMySat

Download on the App Store